NUSAT-4 (ADA) (43195 NORAD) Tracking and Keplerian Element Data

This shows tracking and keplerian element data for the satellite.

Feedback or suggestion? Click here.




ElementValue
Catalog43195
NameNUSAT-4 (ADA)
Epoch Orbit2977
Epoch Day228.91378486
Epoch Year2018
RAAN356.5948
Inclination97.3596
Eccentricity0.0016292
Argument of Perigee301.4493
Mean Anonmoly211.4296
Mean Motion15.23319636
Decay Rate6.75E-06
L11 43195U 18015D 18228.91378486 .00000675 00000-0 31309-4 0 9992
L22 43195 97.3596 356.5948 0016292 301.4493 211.4296 15.23319636 29776

Live tracking and technical data element details for NUSAT-4 (ADA) (NORAD 43195). NUSAT-4 (ADA) can be tracked NOW for your location showing map with azimuth and elevation plus other details from your city location.

Track the satellite on the map from your city or location and see movement details for azimuth, elevation, latitude, longitude, range, height, and movement on the map or in text.







IsCatalogInMostPopularTable: catalog: 43195, numindb: 69
Update: records affected: 1



GetName: 43195 NUSAT-4 (ADA)

Hit Count: updated at: Fri, 17 Aug 2018 13:19:37 GMT